Date String (YYYY-MM-DD hh:mm:ss) UTC,Instrument flags,Ambient pressure (hPa),Sample flow (lpm),Bypass flow (lpm),Sample temperature (°C),Ambient temperature (°C),ASC tube jacket temperature (°C),LED temperature (°C),Box temperature (°C),Sample RH (%),Span deviation,Mass concentration (μg/m³),Mass concentration (μg/m³),Mass concentration (μg/m³)
DateTimeUTC,F1_M11,P_M11,Q1_M11,Q2_M11,T1_M11,T2_M11,T3_M11,T4_M11,T5_M11,U1_M11,ZSPAN_M11,X0_M11,X2_M11,X1_M11
2021-09-09 19:00:00,,0830.1,5.01,0.00,29.2,27.1,00.0,38.2,30.8,18.3,0001.5,0044.99,0023.71,0021.74
2021-09-09 19:01:00,,0830.1,4.99,0.00,29.1,26.0,00.0,38.1,30.4,18.8,0001.3,0043.99,0023.75,0021.76
2021-09-09 19:02:00,,0830.1,5.00,0.00,29.0,26.2,00.0,38.1,30.5,19.2,0001.1,0043.44,0023.83,0021.78
2021-09-09 19:03:00,,0830.1,5.00,0.00,29.0,26.6,00.0,38.1,30.6,19.4,0000.9,0043.52,0023.81,0021.78
2021-09-09 19:04:00,,0830.1,4.99,0.00,29.0,27.1,00.0,38.1,30.8,19.5,0001.0,0043.60,0023.84,0021.80
2021-09-09 19:05:00,,0830.1,4.99,0.00,29.1,27.5,00.0,38.1,30.9,19.5,0001.1,0043.61,0023.92,0021.84
2021-09-09 19:06:00,,0830.1,5.00,0.00,29.1,27.8,00.0,38.1,31.0,19.3,0001.1,0044.21,0024.03,0021.90
2021-09-09 19:07:00,,0830.1,5.02,0.00,29.2,28.1,00.0,38.1,31.1,19.4,0001.1,0045.19,0024.10,0021.91
2021-09-09 19:08:00,,0830.1,4.99,0.00,29.2,27.9,00.0,38.1,31.0,18.3,0001.3,0046.40,0024.17,0021.91
2021-09-09 19:09:00,,0830.1,5.00,0.00,29.1,26.4,00.0,38.1,30.6,17.5,0001.2,0046.66,0024.07,0021.78
2021-09-09 19:10:00,,0830.1,5.01,0.00,29.0,26.0,00.0,38.1,30.5,15.3,0001.1,0047.20,0023.92,0021.65
2021-09-09 19:11:00,,0830.1,4.99,0.00,29.0,26.4,00.0,38.1,30.6,14.0,0001.1,0045.83,0023.66,0021.50
2021-09-09 19:12:00,,0830.1,5.01,0.00,29.0,26.8,00.0,38.1,30.7,12.4,0001.1,0045.62,0023.37,0021.32
2021-09-09 19:13:00,,0830.1,5.00,0.00,29.0,27.2,00.0,38.1,30.8,12.2,0000.9,0044.68,0023.07,0021.13
2021-09-09 19:14:00,,0830.1,5.01,0.00,29.1,27.6,00.0,38.1,30.9,13.2,0001.2,0041.66,0022.81,0020.93
2021-09-09 19:15:00,,0830.1,4.99,0.00,29.1,28.0,00.0,38.1,31.0,14.2,0001.2,0038.90,0022.52,0020.74
2021-09-09 19:16:00,,0830.1,5.02,0.00,29.2,28.2,00.0,38.1,31.1,14.5,0001.3,0038.28,0022.24,0020.54
2021-09-09 19:17:00,,0830.1,5.00,0.00,29.2,27.2,00.0,38.1,30.8,15.7,0001.2,0038.33,0022.02,0020.40
2021-09-09 19:18:00,,0830.1,5.01,0.00,29.1,25.9,00.0,38.1,30.5,16.2,0001.2,0037.02,0021.82,0020.28
2021-09-09 19:19:00,,0830.1,5.00,0.00,29.0,26.1,00.0,38.1,30.5,15.8,0001.4,0035.40,0021.65,0020.18
2021-09-09 19:20:00,,0830.0,4.99,0.00,29.0,26.5,00.0,38.1,30.6,15.8,0001.2,0034.24,0021.60,0020.16
2021-09-09 19:21:00,,0830.0,5.01,0.00,29.0,27.0,00.0,38.1,30.7,14.7,0001.1,0032.31,0021.58,0020.12
2021-09-09 19:22:00,,0830.0,5.00,0.00,29.0,27.4,00.0,38.1,30.9,14.2,0000.9,0032.57,0021.59,0020.12
2021-09-09 19:23:00,,0830.1,4.99,0.00,29.1,27.7,00.0,38.1,31.0,14.1,0000.8,0033.03,0021.66,0020.12
2021-09-09 19:24:00,,0830.0,5.01,0.00,29.2,28.0,00.0,38.1,31.1,13.9,0000.8,0033.93,0021.80,0020.14
2021-09-09 19:25:00,,0830.0,4.98,0.00,29.2,27.9,00.0,38.1,31.0,13.8,0001.1,0034.92,0021.83,0020.16
2021-09-09 19:26:00,,0829.9,5.01,0.00,29.1,26.4,00.0,38.1,30.6,12.9,0000.7,0036.83,0021.92,0020.18
2021-09-09 19:27:00,,0829.9,5.00,0.00,29.0,25.9,00.0,38.1,30.4,12.3,0000.4,0037.63,0021.97,0020.19
2021-09-09 19:28:00,,0829.9,4.98,0.00,29.0,26.3,00.0,38.1,30.5,12.2,0000.1,0037.96,0021.87,0020.12
2021-09-09 19:29:00,,0829.8,5.01,0.00,29.0,26.7,00.0,38.1,30.7,12.0,0000.2,0038.60,0021.75,0020.05
2021-09-09 19:30:00,,0829.9,5.00,0.00,29.0,27.1,00.0,38.0,30.8,12.5,-000.1,0038.78,0021.61,0019.97
2021-09-09 19:31:00,,0829.9,5.00,0.00,29.0,27.6,00.0,38.1,30.9,12.8,0000.1,0039.12,0021.53,0019.91
2021-09-09 19:32:00,,0829.9,5.01,0.00,29.1,27.9,00.0,38.1,31.0,13.4,0000.6,0039.23,0021.47,0019.89
2021-09-09 19:33:00,,0829.8,5.01,0.00,29.2,28.2,00.0,38.1,31.1,14.5,0001.0,0040.00,0021.47,0019.85
2021-09-09 19:34:00,,0829.8,5.00,0.00,29.2,28.1,00.0,38.1,31.1,14.2,0001.4,0040.76,0021.45,0019.82
2021-09-09 19:35:00,,0829.8,5.01,0.00,29.2,26.6,00.0,38.1,30.7,13.9,0001.7,0040.62,0021.35,0019.78
2021-09-09 19:36:00,,0829.9,5.00,0.00,29.0,25.9,00.0,38.1,30.4,14.5,0001.3,0039.83,0021.35,0019.75
2021-09-09 19:37:00,,0829.8,4.99,0.00,29.0,26.3,00.0,38.1,30.6,14.7,0001.0,0038.25,0021.32,0019.72
2021-09-09 19:38:00,,0829.8,5.00,0.00,29.0,26.7,00.0,38.1,30.7,14.5,0000.7,0037.66,0021.33,0019.70
2021-09-09 19:39:00,,0829.8,5.00,0.00,29.0,27.1,00.0,38.1,30.8,14.7,0000.3,0036.85,0021.36,0019.68
2021-09-09 19:40:00,,0829.8,5.00,0.00,29.1,27.5,00.0,38.1,30.9,14.8,0000.4,0037.04,0021.46,0019.68
2021-09-09 19:41:00,,0829.8,5.00,0.00,29.1,27.8,00.0,38.1,31.0,14.9,0000.6,0037.43,0021.58,0019.69
2021-09-09 19:42:00,,0829.7,4.99,0.00,29.2,27.8,00.0,38.1,31.0,15.5,0000.5,0037.95,0021.69,0019.71
2021-09-09 19:43:00,,0829.7,5.01,0.00,29.1,26.4,00.0,38.1,30.5,15.9,0000.3,0039.39,0021.79,0019.73
2021-09-09 19:44:00,,0829.7,4.99,0.00,29.0,25.7,00.0,38.1,30.3,15.9,0000.3,0040.44,0021.81,0019.77
2021-09-09 19:45:00,,0829.6,4.99,0.00,28.9,26.2,00.0,38.1,30.4,15.9,-000.2,0040.69,0021.80,0019.78
2021-09-09 19:46:00,,0829.6,5.01,0.00,28.9,26.6,00.0,38.0,30.6,15.6,0000.1,0040.56,0021.83,0019.78
2021-09-09 19:47:00,,0829.8,4.99,0.00,28.9,27.0,00.0,38.0,30.7,15.4,0000.4,0042.09,0021.92,0019.78
2021-09-09 19:48:00,,0829.6,4.99,0.00,29.0,27.4,00.0,38.0,30.8,15.2,0000.6,0044.19,0021.94,0019.77
2021-09-09 19:49:00,,0829.7,5.00,0.00,29.1,27.8,00.0,38.0,31.0,15.3,0001.3,0045.37,0021.96,0019.79
2021-09-09 19:50:00,,0829.7,5.00,0.00,29.1,28.0,00.0,38.1,31.1,15.2,0001.6,0046.28,0022.09,0019.83
2021-09-09 19:51:00,,0829.7,5.01,0.00,29.2,27.4,00.0,38.1,30.9,15.5,0001.4,0046.02,0022.07,0019.87
2021-09-09 19:52:00,,0829.6,5.00,0.00,29.0,25.9,00.0,38.1,30.4,15.8,0001.2,0045.67,0022.04,0019.86
2021-09-09 19:53:00,,0829.8,5.00,0.00,28.9,26.0,00.0,38.0,30.4,15.2,0001.2,0045.50,0021.99,0019.85
2021-09-09 19:54:00,,0829.9,5.00,0.00,28.9,26.4,00.0,38.0,30.5,14.8,0001.1,0043.98,0021.86,0019.79
2021-09-09 19:55:00,,0829.5,5.00,0.00,28.9,26.8,00.0,38.0,30.6,15.0,0000.9,0041.92,0021.81,0019.76
2021-09-09 19:56:00,,0829.7,4.99,0.00,29.0,27.2,00.0,38.0,30.8,15.1,0000.7,0041.03,0021.81,0019.77
2021-09-09 19:57:00,,0829.7,5.01,0.00,29.0,27.6,00.0,38.0,30.9,14.8,0000.6,0040.99,0021.87,0019.81
2021-09-09 19:58:00,,0829.7,5.00,0.00,29.1,27.6,00.0,38.0,30.9,14.5,0000.5,0040.67,0021.86,0019.83
2021-09-09 19:59:00,,0829.8,5.00,0.00,29.0,26.3,00.0,38.0,30.5,14.5,0000.7,0038.97,0021.85,0019.84
